Cherry Point, NC

9:54 PM EST on February 07, 2016 (GMT -0500)
Cherry Point Marine Corps Air Station

Weather History for KNKT - June, 2013

Change the Weather History Date:

Saturday, June 29, 2013

  Actual Average Record
Temperature  
Mean Temperature 78 °F -  
Max Temperature 84 °F 85 °F 93 °F (2012)
Min Temperature 73 °F 68 °F 66 °F (1997)
Cooling Degree Days 14    
Growing Degree Days 28 (Base 50)    
Moisture  
Dew Point 72 °F    
Average Humidity 81    
Maximum Humidity 90    
Minimum Humidity 71    
Precipitation  
Precipitation 0.11 in - - ()
Sea Level Pressure  
Sea Level Pressure 29.72 in    
Wind  
Wind Speed 10 mph ()    
Max Wind Speed 24 mph    
Max Gust Speed 34 mph    
Visibility 8.7 miles    
Events Rain , Thunderstorm    
Averages and records for this station are not official NWS values.
T = Trace of Precipitation, MM = Missing Value Source: Averaged Metar Reports

Daily Weather History Graph

Daily Weather History Graph

Search for Another Location

Airport or City:

Trip Planner

Search our weather history database for the weather conditions in past years. The results will help you decide how hot, cold, wet, or windy it might be!

Date:

Astronomy

Jun. 29, 2013 Rise Set
Actual Time 5:56 AM EDT 8:25 PM EDT
Civil Twilight 5:27 AM EDT 8:54 PM EDT
Nautical Twilight 4:50 AM EDT 9:31 PM EDT
Astronomical Twilight 4:10 AM EDT 10:11 PM EDT
Moon 12:09 AM EDT (6/29) 12:48 PM EDT (6/29)
Length of Visible Light 15h 27m
Length of Day
14h 28m
Waning Gibbous, 56% of the Moon is Illuminated
Jun 29
Waning Gibbous
Jun 30
Last Quarter
Jul 8
New
Jul 15
First Quarter
Jul 22
Full

Hourly Weather History & Observations

Time (EDT) Temp. Heat Index Dew Point Humidity Pressure Visibility Wind Dir Wind Speed Gust Speed Precip Events Conditions
12:23 AM 77.0 °F - 68.0 °F 74% 29.70 in 2.0 mi Variable 3.5 mph - 0.01 in Rain Heavy Rain
12:31 AM 75.0 °F - 68.0 °F 79% 29.69 in 5.0 mi Calm Calm - 0.02 in Rain Light Rain
12:54 AM 73.9 °F - 70.0 °F 87% 29.69 in 7.0 mi South 5.8 mph - 0.06 in Rain Light Rain
1:16 AM 75.9 °F - 72.0 °F 87% 29.69 in 9.0 mi South 5.8 mph - 0.02 in Rain Light Rain
1:54 AM 78.1 °F - 75.0 °F 90% 29.68 in 8.0 mi SSW 12.7 mph - 0.03 in Rain Light Rain
2:54 AM 78.1 °F - 73.9 °F 87% 29.65 in 9.0 mi SSW 15.0 mph 25.3 mph 0.00 in   Overcast
3:54 AM 79.0 °F - 73.9 °F 84% 29.66 in 10.0 mi SSW 15.0 mph 25.3 mph N/A Thunderstorm Thunderstorm
4:54 AM 79.0 °F - 73.9 °F 84% 29.67 in 10.0 mi SSW 11.5 mph 25.3 mph N/A   Overcast
5:54 AM 78.1 °F - 73.0 °F 84% 29.68 in 10.0 mi SW 19.6 mph 32.2 mph N/A   Overcast
6:54 AM 78.1 °F - 73.0 °F 84% 29.69 in 9.0 mi SW 16.1 mph 24.2 mph N/A   Mostly Cloudy
7:54 AM 79.0 °F - 73.0 °F 82% 29.68 in 10.0 mi SW 17.3 mph 24.2 mph N/A   Overcast
8:54 AM 81.0 °F 86.2 °F 73.9 °F 79% 29.70 in 10.0 mi SW 17.3 mph 21.9 mph N/A   Scattered Clouds
9:54 AM 80.1 °F 84.2 °F 73.0 °F 79% 29.71 in 10.0 mi SW 12.7 mph 23.0 mph N/A   Overcast
10:54 AM 84.0 °F 91.9 °F 75.0 °F 74% 29.70 in 9.0 mi SSW 12.7 mph - N/A   Mostly Cloudy
11:54 AM 82.0 °F 87.4 °F 73.0 °F 74% 29.71 in 10.0 mi SSW 10.4 mph - 0.00 in Rain Light Rain
12:54 PM 79.0 °F - 73.0 °F 82% 29.72 in 8.0 mi SSW 12.7 mph - 0.00 in Rain Light Rain
1:54 PM 79.0 °F - 72.0 °F 79% 29.73 in 10.0 mi SW 13.8 mph 19.6 mph 0.00 in   Mostly Cloudy
2:54 PM 81.0 °F 85.2 °F 72.0 °F 74% 29.72 in 10.0 mi South 16.1 mph 24.2 mph 0.01 in   Mostly Cloudy
3:54 PM 82.0 °F 86.7 °F 72.0 °F 71% 29.73 in 10.0 mi SSW 21.9 mph 34.5 mph 0.00 in   Mostly Cloudy
4:01 PM 82.0 °F 87.4 °F 73.0 °F 74% 29.74 in 10.0 mi SSW 16.1 mph 34.5 mph N/A   Mostly Cloudy
4:12 PM 81.0 °F 85.2 °F 72.0 °F 74% 29.73 in 10.0 mi SSW 19.6 mph 29.9 mph N/A   Mostly Cloudy
4:36 PM 81.0 °F 85.8 °F 73.0 °F 77% 29.73 in 10.0 mi SSW 18.4 mph 28.8 mph 0.00 in Rain Light Rain
4:54 PM 81.0 °F 85.8 °F 73.0 °F 77% 29.73 in 10.0 mi SW 24.2 mph 33.4 mph 0.00 in   Overcast
5:54 PM 80.1 °F 83.8 °F 72.0 °F 76% 29.73 in 10.0 mi SW 15.0 mph 25.3 mph 0.00 in   Overcast
6:54 PM 79.0 °F - 72.0 °F 79% 29.73 in 9.0 mi SSW 12.7 mph 25.3 mph 0.00 in   Mostly Cloudy
7:54 PM 78.1 °F - 72.0 °F 81% 29.74 in 8.0 mi SW 10.4 mph 21.9 mph N/A   Overcast
8:54 PM 77.0 °F - 72.0 °F 84% 29.77 in 10.0 mi SSW 12.7 mph 19.6 mph N/A   Overcast
9:11 PM 77.0 °F - 71.1 °F 82% 29.79 in 10.0 mi SW 15.0 mph 23.0 mph N/A   Scattered Clouds
9:54 PM 77.0 °F - 71.1 °F 82% 29.79 in 10.0 mi SSW 9.2 mph - 0.00 in Rain Light Rain
10:17 PM 75.9 °F - 71.1 °F 85% 29.80 in 6.0 mi South 6.9 mph - 0.00 in Rain Light Rain
10:35 PM 75.9 °F - 72.0 °F 87% 29.81 in 4.0 mi SSW 8.1 mph - 0.00 in Rain Rain
10:54 PM 77.0 °F - 72.0 °F 84% 29.80 in 4.0 mi South 9.2 mph - 0.00 in Rain Rain
11:54 PM 78.1 °F - 73.0 °F 84% 29.81 in 10.0 mi SSW 12.7 mph 19.6 mph 0.01 in   Overcast